Location: Unspecified
(0.0000°N, 0.0000°E)
Time: 10:19:52
(UTC+00:00)

Tiros 5 - Visible Passes

Search period start: 18 July 2024 00:00
Search period end: 28 July 2024 00:00
Orbit: 562 x 832 km, 58.1° (Epoch: 18 July)

Date Brightness Start Highest point End Pass type
(mag) Time Alt. Az. Time Alt. Az. Time Alt. Az.
24 Jul 9.3 20:01:28 10° SW 20:03:16 23° SW 20:03:16 23° SW visible
25 Jul 8.1 19:02:08 10° S 19:06:10 33° ESE 19:10:00 10° NE visible
25 Jul 10.7 20:47:16 10° WNW 20:48:09 11° WNW 20:49:01 10° NW visible
26 Jul 9.0 19:44:29 10° SW 19:48:31 36° WNW 19:52:22 10° N visible
27 Jul 7.4 18:44:29 10° SSW 18:48:54 61° ESE 18:53:03 10° NE visible
